Regional Weather Roundup
Issued by NWS Albany, NY

Home | Current Version | Previous Version | Text Only | Print | Product List | Glossary On
Versions: 1 2 3 4 5 6 7 8 9 10 11 12 13 14 15 16 17 18 19 20 21 22 23 24 25 26 27 28 29 30 31 32 33 34 35 36 37 38 39 40 41 42 43 44 45 46 47 48 49 50
000
ASUS41 KALY 281110
RWRALY

NEW YORK STATE HOURLY WEATHER ROUNDUP
NATIONAL WEATHER SERVICE ALBANY NY
700 AM EDT THU MAY 28 2015

NOTE: "FAIR" INDICATES FEW OR NO CLOUDS BELOW 12,000 FEET WITH NO
SIGNIFICANT WEATHER AND/OR NO OBSTRUCTIONS TO VISIBILITY.

NYZ032-033-038>043-046>054-057>066-NYZ062>081-281200-
EAST


CITY           SKY/WX    TMP DP  RH WIND       PRES   REMARKS
ALBANY         PTSUNNY   69  64  84 S12       30.10R
GLENS FALLS    CLOUDY    68  64  87 S6        30.08R
POUGHKEEPSIE   CLOUDY    69  67  93 CALM      30.13S
NEWBURGH       PTSUNNY   68  68 100 CALM      30.16R
MONTGOMERY     SUNNY     68  67  96 CALM      30.14S FOG
WHITE PLAINS   CLOUDY    64  63  96 SE3       30.16R FOG
ISLIP          PTSUNNY   64  60  87 SW10      30.17R
NEW YORK CITY  CLOUDY    67  61  81 S6        30.15R
CENTRAL PARK   CLOUDY    72  66  81 W3        30.18R
$$

NYZ005>009-017-018-044>046-055-056-281200-
CENTRAL


CITY           SKY/WX    TMP DP  RH WIND       PRES   REMARKS
FULTON         CLOUDY    65  60  84 SW7       30.08R
SYRACUSE       CLOUDY    69  58  67 SW9       30.08R
ROME           CLOUDY    66  63  90 CALM      30.10R
ELMIRA         PTSUNNY   64  62  93 SW5       30.13R
BINGHAMTON     CLOUDY    64  63  96 SW7       30.14R
MONTICELLO     CLOUDY    63  63 100 CALM      30.18S VSB<1/4
$$

NYZ026>034-041>043-281200-
NORTH


CITY           SKY/WX    TMP DP  RH WIND       PRES   REMARKS
WATERTOWN      CLOUDY    61  59  93 W10       30.06R
FORT DRUM      NOT AVBL
MASSENA        CLOUDY    67  59  75 SW14G23   30.01R
SARANAC LAKE   LGT RAIN  62  59  90 SW7       30.07R
PLATTSBURGH    PTSUNNY   64  63  96 SE3       30.01R
$$

NYZ001>004-010>016-019>021-281200-
WEST


CITY           SKY/WX    TMP DP  RH WIND       PRES   REMARKS
NIAGARA FALLS  PTSUNNY   59  51  75 W14       30.16R
BUFFALO        PTSUNNY   60  54  80 W9        30.16R
DUNKIRK        SUNNY     58  56  93 SW6       30.20R
JAMESTOWN      SUNNY     57  54  88 W5        30.21R
WELLSVILLE     CLOUDY    61  57  87 W10       30.20R
ROCHESTER      CLOUDY    64  59  83 W13       30.11R
PENN YAN       PTSUNNY   64  58  80 SW9       30.12R
$$

             KEY
       WCI = WIND CHILL INDEX
       VSB = VISIBILITY
       HX  = HEAT INDEX
$$


USA.gov is the U.S. government's official web portal to all federal, state and local government web resources and services.